Location: Dumpton Point
(51.3500°N, 1.4433°E)
Time: 11:31:45
(UTC+00:00)

Envisat - Pass Details

Date: 08 December 2021
Orbit: 764 x 766 km, 98.2° (Epoch: 23 January)

Event Time Altitude Azimuth Distance (km) Brightness Sun altitude
Rises 04:41:06 0° 17° (NNE) 3,247 6.4 -27.6°
Reaches altitude 10° 04:43:28 10° 22° (NNE) 2,316 5.7 -27.2°
Maximum altitude 04:48:28 54° 100° (E) 927 3.7 -26.4°
Drops below altitude 10° 04:53:26 10° 178° (S) 2,297 5.5 -25.7°
Sets 04:55:47 0° 183° (S) 3,219 6.3 -25.3°
